• In Hungary
  • List of Countries
  • For 7 days
  • Water Temperature
  • Satellite Maps
  • Weather Map
  • News
  • Weather Widgets
  • user-avatar
    Login

    Hourly Weather Tavakanovo

    Today, 24 September, Monday

    Time Temperature Precipitation Wind Pressure Humidity
    00:00 +14°C° 0 mm 1 mps 737 mmHg 91%
    01:00 +14°C° 0 mm 1 mps 737 mmHg 92%
    02:00 +13°C° 0 mm 1 mps 737 mmHg 92%
    03:00 +13°C° 0 mm 1 mps 737 mmHg 93%
    04:00 +13°C° 0 mm 2 mps 737 mmHg 93%
    05:00 +13°C° 0 mm 2 mps 737 mmHg 93%
    06:00 +13°C° 0 mm 2 mps 737 mmHg 93%
    07:00 +14°C° 0 mm 2 mps 737 mmHg 93%
    08:00 +15°C° 0 mm 2 mps 737 mmHg 87%
    09:00 +17°C° 0 mm 3 mps 737 mmHg 82%
    10:00 +18°C° 0 mm 3 mps 737 mmHg 76%
    11:00 +19°C° 0.1 mm 4 mps 737 mmHg 68%
    12:00 +21°C° 0.1 mm 5 mps 737 mmHg 60%
    13:00 +22°C° 0.1 mm 6 mps 737 mmHg 52%
    14:00 +22°C° 0 mm 5 mps 736 mmHg 51%
    15:00 +22°C° 0 mm 5 mps 736 mmHg 50%
    16:00 +22°C° 0 mm 5 mps 736 mmHg 49%
    17:00 +20°C° 0 mm 4 mps 736 mmHg 54%
    18:00 +19°C° 0 mm 3 mps 736 mmHg 59%
    19:00 +17°C° 0 mm 3 mps 736 mmHg 64%
    20:00 +16°C° 0 mm 3 mps 736 mmHg 65%
    21:00 +14°C° 0 mm 3 mps 736 mmHg 67%
    22:00 +15°C° 0 mm 2 mps 736 mmHg 68%
    23:00 +14°C° 0 mm 2 mps 736 mmHg 70%

    Tomorrow, 25 September, Tuesday

    Time Temperature Precipitation Wind Pressure Humidity
    00:00 +14°C° 0 mm 2 mps 736 mmHg 71%
    01:00 +13°C° 0 mm 2 mps 736 mmHg 72%
    02:00 +13°C° 0 mm 2 mps 736 mmHg 72%
    03:00 +12°C° 0 mm 3 mps 736 mmHg 71%
    04:00 +12°C° 0 mm 3 mps 736 mmHg 71%
    05:00 +12°C° 0 mm 3 mps 736 mmHg 70%
    06:00 +12°C° 0 mm 3 mps 736 mmHg 69%
    07:00 +12°C° 0 mm 3 mps 736 mmHg 68%
    08:00 +14°C° 0 mm 4 mps 736 mmHg 60%
    09:00 +17°C° 0 mm 5 mps 736 mmHg 53%
    10:00 +20°C° 0 mm 6 mps 736 mmHg 45%
    11:00 +21°C° 0 mm 7 mps 736 mmHg 43%
    12:00 +22°C° 0 mm 7 mps 736 mmHg 41%
    13:00 +23°C° 0 mm 7 mps 736 mmHg 39%
    14:00 +23°C° 0 mm 7 mps 736 mmHg 40%
    15:00 +23°C° 0 mm 6 mps 736 mmHg 41%
    16:00 +23°C° 0 mm 5 mps 735 mmHg 42%
    17:00 +21°C° 0 mm 4 mps 735 mmHg 47%
    18:00 +19°C° 0 mm 4 mps 735 mmHg 51%
    19:00 +17°C° 0 mm 3 mps 735 mmHg 56%
    20:00 +16°C° 0 mm 3 mps 736 mmHg 56%
    21:00 +16°C° 0 mm 3 mps 736 mmHg 56%
    22:00 +14°C° 0 mm 3 mps 736 mmHg 56%
    23:00 +14°C° 0 mm 3 mps 736 mmHg 57%

    Day after tomorrow, 26 September, Wednesday

    Time Temperature Precipitation Wind Pressure Humidity
    00:00 +13°C° 0 mm 3 mps 736 mmHg 58%
    01:00 +13°C° 0 mm 3 mps 736 mmHg 58%
    02:00 +13°C° 0 mm 3 mps 736 mmHg 59%
    03:00 +13°C° 0 mm 3 mps 736 mmHg 61%
    04:00 +13°C° 0 mm 3 mps 736 mmHg 62%
    05:00 +13°C° 0 mm 3 mps 736 mmHg 63%
    06:00 +13°C° 0 mm 4 mps 736 mmHg 64%
    07:00 +13°C° 0 mm 4 mps 736 mmHg 65%
    08:00 +14°C° 0 mm 4 mps 736 mmHg 61%
    09:00 +16°C° 0 mm 5 mps 736 mmHg 58%
    10:00 +17°C° 0 mm 5 mps 737 mmHg 54%
    11:00 +17°C° 0 mm 5 mps 737 mmHg 54%
    12:00 +19°C° 0 mm 5 mps 737 mmHg 54%
    13:00 +19°C° 0 mm 4 mps 737 mmHg 54%
    14:00 +19°C° 0 mm 4 mps 738 mmHg 55%
    15:00 +19°C° 0 mm 4 mps 738 mmHg 56%
    16:00 +19°C° 0 mm 4 mps 738 mmHg 58%
    17:00 +17°C° 0 mm 4 mps 738 mmHg 65%
    18:00 +14°C° 0 mm 4 mps 738 mmHg 73%
    19:00 +12°C° 0 mm 4 mps 739 mmHg 80%
    20:00 +11°C° 0.1 mm 3 mps 739 mmHg 82%
    21:00 +11°C° 0.1 mm 3 mps 739 mmHg 85%
    22:00 +10°C° 0.1 mm 2 mps 739 mmHg 87%
    23:00 +10°C° 0.2 mm 2 mps 739 mmHg 87%

    27 September, Thursday

    Time Temperature Precipitation Wind Pressure Humidity
    00:00 +10°C° 0.2 mm 2 mps 739 mmHg 87%
    01:00 +9°C° 0.2 mm 2 mps 739 mmHg 88%
    02:00 +9°C° 0.4 mm 2 mps 739 mmHg 89%
    03:00 +9°C° 0.4 mm 2 mps 739 mmHg 90%
    04:00 +10°C° 0.4 mm 1 mps 739 mmHg 90%
    05:00 +10°C° 0.8 mm 1 mps 739 mmHg 91%
    06:00 +9°C° 0.8 mm 1 mps 739 mmHg 92%
    07:00 +9°C° 0.8 mm 1 mps 739 mmHg 92%
    08:00 +9°C° 0.7 mm 1 mps 739 mmHg 91%
    09:00 +9°C° 0.7 mm 1 mps 738 mmHg 89%
    10:00 +10°C° 0.7 mm 1 mps 738 mmHg 87%
    11:00 +10°C° 0.5 mm 1 mps 738 mmHg 83%
    12:00 +11°C° 0.5 mm 1 mps 738 mmHg 79%
    13:00 +11°C° 0.5 mm 1 mps 738 mmHg 75%
    14:00 +11°C° 0.1 mm 1 mps 738 mmHg 74%
    15:00 +10°C° 0.1 mm 2 mps 738 mmHg 74%
    16:00 +10°C° 0.1 mm 2 mps 738 mmHg 74%
    17:00 +10°C° 0 mm 2 mps 738 mmHg 77%
    18:00 +9°C° 0 mm 2 mps 738 mmHg 80%
    19:00 +8°C° 0 mm 2 mps 738 mmHg 84%
    20:00 +7°C° 0 mm 2 mps 737 mmHg 85%
    21:00 +7°C° 0 mm 2 mps 737 mmHg 87%
    22:00 +6°C° 0 mm 2 mps 737 mmHg 89%
    23:00 +6°C° 0 mm 2 mps 737 mmHg 87%

    28 September, Friday

    Time Temperature Precipitation Wind Pressure Humidity
    00:00 +6°C° 0 mm 2 mps 737 mmHg 85%
    01:00 +6°C° 0 mm 2 mps 737 mmHg 83%
    02:00 +5°C° 0 mm 3 mps 736 mmHg 83%
    03:00 +4°C° 0 mm 3 mps 736 mmHg 82%
    04:00 +4°C° 0 mm 3 mps 736 mmHg 81%
    05:00 +4°C° 0 mm 3 mps 736 mmHg 80%
    06:00 +5°C° 0 mm 4 mps 736 mmHg 79%
    07:00 +5°C° 0 mm 4 mps 736 mmHg 78%
    08:00 +6°C° 0 mm 4 mps 736 mmHg 73%
    09:00 +7°C° 0 mm 5 mps 736 mmHg 68%
    10:00 +8°C° 0 mm 6 mps 737 mmHg 63%
    11:00 +9°C° 0 mm 5 mps 737 mmHg 60%
    12:00 +10°C° 0 mm 5 mps 737 mmHg 57%
    13:00 +12°C° 0 mm 5 mps 737 mmHg 54%
    14:00 +12°C° 0 mm 5 mps 737 mmHg 53%
    15:00 +12°C° 0 mm 5 mps 737 mmHg 53%
    16:00 +13°C° 0 mm 5 mps 736 mmHg 52%
    17:00 +12°C° 0 mm 5 mps 736 mmHg 57%
    18:00 +10°C° 0 mm 4 mps 736 mmHg 61%
    19:00 +8°C° 0 mm 4 mps 736 mmHg 66%
    20:00 +8°C° 0 mm 4 mps 736 mmHg 65%
    21:00 +8°C° 0 mm 5 mps 736 mmHg 63%
    22:00 +8°C° 0 mm 5 mps 735 mmHg 62%
    23:00 +9°C° 0 mm 5 mps 735 mmHg 58%

    29 September, Saturday

    Time Temperature Precipitation Wind Pressure Humidity
    00:00 +9°C° 0 mm 6 mps 735 mmHg 55%
    01:00 +10°C° 0 mm 6 mps 735 mmHg 51%
    02:00 +10°C° 0 mm 6 mps 735 mmHg 52%
    03:00 +9°C° 0 mm 6 mps 735 mmHg 52%
    04:00 +9°C° 0 mm 6 mps 735 mmHg 53%
    05:00 +9°C° 0.1 mm 5 mps 735 mmHg 56%
    06:00 +9°C° 0.1 mm 5 mps 735 mmHg 60%
    07:00 +9°C° 0.1 mm 5 mps 736 mmHg 63%
    08:00 +10°C° 0.3 mm 4 mps 736 mmHg 68%
    09:00 +10°C° 0.3 mm 4 mps 737 mmHg 72%
    10:00 +10°C° 0.3 mm 4 mps 737 mmHg 77%
    11:00 +10°C° 0.1 mm 3 mps 737 mmHg 76%
    12:00 +11°C° 0.1 mm 3 mps 738 mmHg 75%
    13:00 +12°C° 0.1 mm 3 mps 738 mmHg 74%
    14:00 +11°C° 0.2 mm 3 mps 738 mmHg 77%
    15:00 +12°C° 0.2 mm 2 mps 738 mmHg 80%
    16:00 +12°C° 0.2 mm 2 mps 738 mmHg 82%
    17:00 +10°C° 0 mm 2 mps 738 mmHg 85%
    18:00 +11°C° 0 mm 1 mps 739 mmHg 88%
    19:00 +11°C° 0 mm 1 mps 739 mmHg 90%
    20:00 +11°C° 0 mm 1 mps 739 mmHg 90%
    21:00 +11°C° 0 mm 1 mps 739 mmHg 91%
    22:00 +11°C° 0 mm 1 mps 739 mmHg 91%
    23:00 +11°C° 0.1 mm 1 mps 739 mmHg 91%
    Show more

    3.3.7123123